Location: Observatorio Las Palmas
(29.0667°N, 110.9333°W)
Time: 17:46:29
(UTC-07:00)

Skynet4D Del rocket - Visible Passes

Search period start: 16 January 2017 00:00
Search period end: 26 January 2017 00:00
Orbit: 763 x 1291 km, 26.9° (Epoch: 15 January)

Date Brightness Start Highest point End Pass type
(mag) Time Alt. Az. Time Alt. Az. Time Alt. Az.
16 Jan 6.5 19:07:53 10° WSW 19:11:22 15° SSW 19:15:05 10° S visible
18 Jan 6.7 18:39:56 10° SW 18:41:25 11° SSW 18:42:57 10° SSW visible
24 Jan 6.8 05:54:43 10° S 05:57:50 13° SSE 06:00:49 10° SE visible
25 Jan 6.2 06:33:09 10° SSW 06:39:05 25° SSE 06:44:29 10° ESE visible
